GW2301 Weather Reports


Display with metric or nautical units.
time (UTC)temp
F
wind
direction
speed
MPH
gust
MPH
rain 1hr
in
rain 24hr
in
rain mn
in
humidity
%
barometer
mb
20260503045536 35 36 0.0 1.0 0.00 0.00 0.00 87 1019.1
20260503045021 36 36 0.0 1.0 0.00 0.00 0.00 87 1019.0
20260503044633 36 36 0.0 1.0 0.00 0.00 0.00 87 1018.8
20260503044043 36 36 0.0 1.0 0.00 0.00 0.00 86 1018.8
20260503043538 36 36 0.0 1.0 0.00 0.00 0.00 86 1018.6
20260503043208 36 36 0.0 1.0 0.00 0.00 0.00 86 1018.6
20260503042525 37 36 0.0 0.0 0.00 0.00 0.00 85 1018.7
20260503042041 37 36 0.0 1.0 0.00 0.00 0.00 85 1018.7
20260503041659 37 36 0.0 1.0 0.00 0.00 0.00 85 1018.5
20260503041048 37 36 0.0 1.0 0.00 0.00 0.00 84 1018.6
20260503040533 37 36 0.0 1.0 0.00 0.00 0.00 84 1018.4
20260503040209 37 36 0.0 1.0 0.00 0.00 0.00 83 1018.7
20260503035539 38 36 0.0 0.0 0.00 0.00 0.00 83 1018.6
20260503035042 38 36 0.0 0.0 0.00 0.00 0.00 82 1018.5
20260503034704 38 36 0.0 1.0 0.00 0.00 0.00 81 1018.5
20260503034039 38 36 0.0 1.0 0.00 0.00 0.00 81 1018.4
20260503033534 38 36 0.0 2.0 0.00 0.00 0.00 80 1018.5
20260503033152 39 36 0.0 2.0 0.00 0.00 0.00 80 1018.5
20260503032534 39 32 0.0 1.0 0.00 0.00 0.00 79 1018.3
20260503032028 39 32 0.0 1.0 0.00 0.00 0.00 78 1018.3
20260503031659 40 32 0.0 1.0 0.00 0.00 0.00 77 1018.2
20260503031025 40 32 0.0 1.0 0.00 0.00 0.00 77 1018.2
20260503030543 40 32 0.0 2.0 0.00 0.00 0.00 77 1018.2
20260503030147 40 32 0.0 2.0 0.00 0.00 0.00 76 1018.2
20260503025524 41 32 0.0 2.0 0.00 0.00 0.00 76 1018.2
20260503025029 41 32 0.0 1.0 0.00 0.00 0.00 75 1018.0
20260503024707 41 32 0.0 1.0 0.00 0.00 0.00 75 1018.0
20260503024040 41 32 0.0 1.0 0.00 0.00 0.00 75 1017.9
20260503023534 41 32 0.0 1.0 0.00 0.00 0.00 74 1017.9
20260503023159 41 32 0.0 1.0 0.00 0.00 0.00 73 1018.0
20260503022518 42 32 0.0 1.0 0.00 0.00 0.00 72 1018.0
20260503022022 42 32 0.0 2.0 0.00 0.00 0.00 72 1017.9
20260503021709 42 32 0.0 2.0 0.00 0.00 0.00 71 1018.1
20260503021018 43 32 0.0 2.0 0.00 0.00 0.00 70 1017.8
20260503020531 43 32 0.0 1.0 0.00 0.00 0.00 70 1017.9
20260503020218 44 32 0.0 1.0 0.00 0.00 0.00 69 1017.7
20260503015523 44 32 0.0 1.0 0.00 0.00 0.00 68 1017.7
20260503015040 44 32 0.0 1.0 0.00 0.00 0.00 68 1017.7
20260503014657 45 28 0.0 1.0 0.00 0.00 0.00 66 1017.6
20260503014035 45 28 0.0 1.0 0.00 0.00 0.00 66 1017.6
20260503013532 46 28 0.0 2.0 0.00 0.00 0.00 65 1017.4
20260503013211 46 28 0.0 2.0 0.00 0.00 0.00 63 1017.3
20260503012546 46 38 0.0 1.0 0.00 0.00 0.00 63 1017.3
20260503012034 46 47 0.0 2.0 0.00 0.00 0.00 64 1017.2
20260503011706 47 47 0.0 2.0 0.00 0.00 0.00 63 1017.3
20260503011025 47 39 0.0 2.0 0.00 0.00 0.00 59 1017.2
20260503010525 48 39 0.0 2.0 0.00 0.00 0.00 59 1017.1
20260503010232 48 39 0.0 2.0 0.00 0.00 0.00 60 1017.1
20260503005543 48 80 0.0 1.0 0.00 0.00 0.00 58 1017.0
20260503005046 48 80 0.0 1.0 0.00 0.00 0.00 56 1016.9
20260503004610 48 80 0.0 2.0 0.00 0.00 0.00 56 1016.8
20260503004035 49 71 0.0 4.0 0.00 0.00 0.00 55 1016.7
20260503003520 49 71 1.0 4.0 0.00 0.00 0.00 56 1016.7
20260503003217 49 56 0.0 1.0 0.00 0.00 0.00 56 1016.7
20260503002530 49 56 0.0 1.0 0.00 0.00 0.00 57 1016.4
20260503002031 50 56 0.0 1.0 0.00 0.00 0.00 54 1016.4
20260503001701 50 56 0.0 1.0 0.00 0.00 0.00 53 1016.3
20260503001042 50 57 0.0 2.0 0.00 0.00 0.00 56 1016.2
20260503000533 50 57 0.0 2.0 0.00 0.00 0.00 55 1016.2
20260503000225 50 83 0.0 1.0 0.00 0.00 0.00 55 1016.2
20260502235539 51 83 0.0 1.0 0.00 0.00 0.00 48 1016.2
20260502235042 52 83 0.0 2.0 0.00 0.00 0.00 48 1015.9
20260502234648 52 83 0.0 2.0 0.00 0.00 0.00 44 1016.0
20260502234042 52 87 0.0 4.0 0.00 0.00 0.00 44 1016.0
20260502233543 53 111 1.0 4.0 0.00 0.00 0.00 43 1016.1
20260502233157 53 190 0.0 3.0 0.00 0.00 0.00 44 1016.0
20260502232547 53 121 0.0 2.0 0.00 0.00 0.00 43 1015.9
20260502232020 53 167 1.0 3.0 0.00 0.00 0.00 43 1016.1
20260502231705 53 38 0.0 3.0 0.00 0.00 0.00 44 1016.0
20260502231041 53 219 0.0 2.0 0.00 0.00 0.00 44 1015.8
20260502230524 53 250 0.0 3.0 0.00 0.00 0.00 43 1015.8
20260502230204 53 57 1.0 3.0 0.00 0.00 0.00 43 1015.8
20260502225523 54 69 0.0 3.0 0.00 0.00 0.00 45 1015.8
20260502225034 54 64 1.0 6.0 0.00 0.00 0.00 42 1015.9
20260502224705 54 92 0.0 6.0 0.00 0.00 0.00 41 1015.9
20260502224028 54 25 1.0 3.0 0.00 0.00 0.00 43 1015.9
20260502223525 54 32 1.0 3.0 0.00 0.00 0.00 44 1015.7
20260502223158 54 184 1.0 4.0 0.00 0.00 0.00 40 1015.7
20260502222540 55 210 0.0 4.0 0.00 0.00 0.00 41 1015.7
20260502222035 55 251 2.0 4.0 0.00 0.00 0.00 41 1015.7
20260502221623 55 136 1.0 4.0 0.00 0.00 0.00 41 1015.7
20260502221032 55 100 0.0 6.0 0.00 0.00 0.00 42 1015.7
20260502220521 56 285 2.0 6.0 0.00 0.00 0.00 41 1015.7
20260502220209 55 350 0.0 5.0 0.00 0.00 0.00 40 1015.6
20260502215529 55 223 1.0 5.0 0.00 0.00 0.00 41 1015.5
20260502215041 55 225 1.0 5.0 0.00 0.00 0.00 40 1015.3
20260502214703 56 179 1.0 7.0 0.00 0.00 0.00 39 1015.3
20260502214047 56 227 2.0 7.0 0.00 0.00 0.00 41 1015.4
20260502213522 56 77 1.0 8.0 0.00 0.00 0.00 39 1015.3
20260502213116 55 98 3.0 8.0 0.00 0.00 0.00 40 1015.3
20260502212531 56 88 1.0 9.0 0.00 0.00 0.00 40 1015.2
20260502212041 56 214 3.0 9.0 0.00 0.00 0.00 39 1015.3
20260502211610 56 37 1.0 8.0 0.00 0.00 0.00 38 1015.4
20260502211042 55 198 1.0 6.0 0.00 0.00 0.00 40 1015.2
20260502210523 55 189 1.0 6.0 0.00 0.00 0.00 40 1015.4
20260502210136 56 320 2.0 6.0 0.00 0.00 0.00 39 1015.4
20260502205529 56 115 0.0 5.0 0.00 0.00 0.00 40 1015.3
20260502205049 56 174 2.0 7.0 0.00 0.00 0.00 38 1015.3
20260502204652 56 267 3.0 9.0 0.00 0.00 0.00 39 1015.3
20260502204034 56 208 6.0 9.0 0.00 0.00 0.00 37 1015.1
20260502203530 56 217 5.0 6.0 0.00 0.00 0.00 38 1015.5
20260502203150 56 27 1.0 5.0 0.00 0.00 0.00 40 1015.4
20260502202532 55 200 1.0 7.0 0.00 0.00 0.00 41 1015.4
20260502202022 56 234 3.0 7.0 0.00 0.00 0.00 39 1015.4
20260502201648 56 142 1.0 10.0 0.00 0.00 0.00 42 1015.6
20260502201024 56 229 2.0 10.0 0.00 0.00 0.00 39 1015.5
20260502200532 58 220 4.0 8.0 0.00 0.00 0.00 37 1015.6
20260502200154 59 200 1.0 9.0 0.00 0.00 0.00 37 1015.5
20260502195526 58 28 2.0 9.0 0.00 0.00 0.00 40 1015.6
20260502195024 57 66 1.0 11.0 0.00 0.00 0.00 40 1015.8
20260502194657 56 224 3.0 9.0 0.00 0.00 0.00 40 1015.7
20260502194028 56 221 5.0 9.0 0.00 0.00 0.00 40 1015.8
20260502193531 56 217 3.0 6.0 0.00 0.00 0.00 40 1015.7
20260502193153 57 279 2.0 7.0 0.00 0.00 0.00 41 1015.6
20260502192524 57 226 3.0 10.0 0.00 0.00 0.00 38 1015.8
20260502192038 58 225 5.0 10.0 0.00 0.00 0.00 36 1015.8
20260502191651 58 188 3.0 9.0 0.00 0.00 0.00 38 1015.9
20260502191034 57 229 2.0 7.0 0.00 0.00 0.00 39 1015.9
20260502190525 57 256 2.0 7.0 0.00 0.00 0.00 39 1016.0
20260502190202 59 234 2.0 10.0 0.00 0.00 0.00 39 1015.9
20260502185523 61 180 3.0 8.0 0.00 0.00 0.00 35 1016.0
20260502185025 59 200 3.0 9.0 0.00 0.00 0.00 37 1016.2
20260502184657 56 208 3.0 9.0 0.00 0.00 0.00 41 1016.3
20260502184031 56 188 1.0 8.0 0.00 0.00 0.00 40 1016.2
20260502183524 58 233 3.0 8.0 0.00 0.00 0.00 37 1016.2
20260502183153 59 259 4.0 9.0 0.00 0.00 0.00 37 1016.3
20260502182542 58 241 4.0 12.0 0.00 0.00 0.00 39 1016.5
20260502182024 55 184 2.0 12.0 0.00 0.00 0.00 41 1016.4
20260502181623 55 194 1.0 4.0 0.00 0.00 0.00 43 1016.5
20260502181031 54 219 1.0 3.0 0.00 0.00 0.00 45 1016.6
20260502180529 54 71 1.0 6.0 0.00 0.00 0.00 42 1016.5
20260502180154 54 226 1.0 6.0 0.00 0.00 0.00 43 1016.7
20260502170144 55 29 1.0 12.0 0.00 0.00 0.00 41 1016.7
20260502164024 56 281 2.0 13.0 0.00 0.00 0.00 40 1016.9
20260502163534 57 234 6.0 10.0 0.00 0.00 0.00 39 1016.8
20260502163140 57 254 2.0 11.0 0.00 0.00 0.00 39 1017.0
20260502162540 58 200 4.0 11.0 0.00 0.00 0.00 38 1016.7
20260502162033 57 259 2.0 9.0 0.00 0.00 0.00 41 1016.8
20260502161653 59 64 2.0 8.0 0.00 0.00 0.00 38 1016.7
20260502161034 58 108 2.0 7.0 0.00 0.00 0.00 40 1016.8
20260502160525 58 175 1.0 5.0 0.00 0.00 0.00 43 1017.1
20260502160153 56 179 1.0 6.0 0.00 0.00 0.00 46 1016.9
20260502152035 54 78 2.0 5.0 0.00 0.00 0.00 47 1017.4
20260502151614 55 195 2.0 5.0 0.00 0.00 0.00 45 1017.2
20260502151039 56 192 3.0 6.0 0.00 0.00 0.00 43 1017.5
20260502150544 55 182 2.0 8.0 0.00 0.00 0.00 44 1017.5
20260502150214 53 69 4.0 8.0 0.00 0.00 0.00 49 1017.4
20260502130543 47 196 0.0 2.0 0.00 0.00 0.00 80 1017.6
20260502130119 47 210 1.0 2.0 0.00 0.00 0.00 80 1017.7
20260502123529 44 150 0.0 1.0 0.00 0.00 0.00 90 1017.4
20260502123213 42 136 0.0 1.0 0.00 0.00 0.00 92 1017.3
20260502122530 41 158 0.0 1.0 0.00 0.00 0.00 92 1017.5
20260502122045 40 196 0.0 1.0 0.00 0.00 0.00 92 1017.4
20260502121700 39 196 0.0 1.0 0.00 0.00 0.00 92 1017.5
20260502121034 39 196 0.0 1.0 0.00 0.00 0.00 92 1017.7
20260502120536 38 196 0.0 1.0 0.00 0.00 0.00 93 1017.5
20260502120139 37 196 0.0 1.0 0.00 0.00 0.00 92 1017.3
20260502115542 37 196 0.0 1.0 0.00 0.00 0.00 92 1017.6
20260502115215 37 196 0.0 1.0 0.00 0.00 0.00 92 1017.5
20260502114623 37 196 0.0 1.0 0.00 0.00 0.00 92 1017.5
20260502114030 36 196 0.0 1.0 0.00 0.00 0.00 92 1017.4
20260502113520 35 196 0.0 1.0 0.00 0.00 0.00 92 1017.2
20260502113130 35 196 0.0 1.0 0.00 0.00 0.00 92 1017.4
20260502112533 35 196 0.0 0.0 0.00 0.00 0.00 92 1017.4
20260502112041 35 196 0.0 1.0 0.00 0.00 0.00 92 1017.2
20260502111634 34 196 0.0 1.0 0.00 0.00 0.00 92 1017.3
20260502111030 34 196 0.0 0.0 0.00 0.00 0.00 92 1017.2
20260502110546 34 196 0.0 0.0 0.00 0.00 0.00 92 1017.2
20260502110200 34 196 0.0 1.0 0.00 0.00 0.00 92 1017.1
20260502105528 34 196 0.0 1.0 0.00 0.00 0.00 92 1017.1
20260502105024 34 196 0.0 1.0 0.00 0.00 0.00 92 1016.9
20260502104653 34 196 0.0 1.0 0.00 0.00 0.00 92 1016.9
20260502104033 34 196 0.0 1.0 0.00 0.00 0.00 92 1017.2
20260502103538 34 196 0.0 1.0 0.00 0.00 0.00 92 1017.1
20260502103138 34 196 0.0 1.0 0.00 0.00 0.00 92 1017.1
20260502102529 34 196 0.0 1.0 0.00 0.00 0.00 92 1016.8
20260502102031 34 196 0.0 1.0 0.00 0.00 0.00 92 1017.0
20260502101633 34 196 0.0 0.0 0.00 0.00 0.00 92 1017.2
20260502101043 34 196 0.0 0.0 0.00 0.00 0.00 92 1017.2
20260502100543 34 196 0.0 0.0 0.00 0.00 0.00 92 1017.2
20260502100204 34 196 0.0 0.0 0.00 0.00 0.00 92 1017.4
20260502091031 34 196 0.0 1.0 0.00 0.00 0.00 92 1017.3
20260502090535 34 196 0.0 1.0 0.00 0.00 0.00 92 1017.4
20260502090137 34 196 0.0 1.0 0.00 0.00 0.00 92 1017.4
20260502071040 35 196 0.0 0.0 0.00 0.00 0.00 91 1016.6
20260502070538 35 196 0.0 0.0 0.00 0.00 0.00 91 1016.7
20260502070204 35 196 0.0 1.0 0.00 0.00 0.00 91 1016.7
20260502065530 36 196 0.0 1.0 0.00 0.00 0.00 91 1016.7
20260502065028 36 196 0.0 0.0 0.00 0.00 0.00 91 1016.8
20260502064700 36 196 0.0 0.0 0.00 0.00 0.00 91 1017.0
20260502064034 36 196 0.0 0.0 0.00 0.00 0.00 91 1017.0
20260502063530 36 196 0.0 0.0 0.00 0.00 0.00 91 1017.0
20260502063153 36 196 0.0 1.0 0.00 0.00 0.00 91 1016.8
20260502062547 36 196 0.0 1.0 0.00 0.00 0.00 91 1017.1
20260502062031 36 196 0.0 0.0 0.00 0.00 0.00 91 1017.0
20260502061658 37 196 0.0 0.0 0.00 0.00 0.00 91 1017.1
20260502061030 36 196 0.0 0.0 0.00 0.00 0.00 91 1017.1
20260502060533 36 196 0.0 0.0 0.00 0.00 0.00 91 1017.1
20260502060220 37 196 0.0 0.0 0.00 0.00 0.00 91 1017.2
20260502055519 37 196 0.0 0.0 0.00 0.00 0.00 91 1017.4
20260502055038 37 196 0.0 1.0 0.00 0.00 0.00 91 1017.3
20260502054652 37 196 0.0 1.0 0.00 0.00 0.00 90 1017.2
20260502054044 37 196 0.0 1.0 0.00 0.00 0.00 91 1017.4
20260502053530 37 196 0.0 1.0 0.00 0.00 0.00 90 1017.4
20260502053155 37 196 0.0 1.0 0.00 0.00 0.00 91 1017.2
20260502052547 37 196 0.0 1.0 0.00 0.00 0.00 91 1017.4
20260502052040 37 196 0.0 2.0 0.00 0.00 0.00 90 1017.4
20260502051657 37 275 0.0 1.0 0.00 0.00 0.00 90 1017.6
20260502051035 38 311 0.0 1.0 0.00 0.00 0.00 90 1017.6
20260502050539 38 323 0.0 0.0 0.00 0.00 0.00 90 1017.5
20260502050251 38 323 0.0 0.0 0.00 0.00 0.00 90 1017.5